Location: *
(60.1759°S, 155.0663°W)
Time: 16:00:24
(UTC+00:00)

Cosmos 1697 Rocket - Pass Details

Date: 17 September 2019
Orbit: 831 x 845 km, 71.0° (Epoch: 13 October)

Event Time Altitude Azimuth Distance (km) Brightness Sun altitude
Rises 12:25:42 0° 224° (SW) 3,419 6.0 -26.9°
Reaches altitude 10° 12:28:12 10° 220° (SW) 2,482 5.3 -26.7°
Maximum altitude 12:33:50 59° 140° (SE) 980 3.2 -26.3°
Drops below altitude 10° 12:39:26 10° 60° (ENE) 2,467 5.2 -25.8°
Sets 12:41:55 0° 55° (NE) 3,398 5.9 -25.6°
